Temperature
25 24 24 24 26 27 29 31 32 31 32 32 31 31 29 28 27 25 25 24 22 22 22 21 21 20 20 20 19 19 19 19 19 19 19 19 19 19 19 19 18 18 18 18 18 18 18 18 18
25 24 25 27 26 27 29 31 31 31 32 31 31 30 29 28 27 26 25 23 22 22 21 21 21 20 20 20 19 19 19 19 19 19 19 19 19 19 18 18 18 18 18 18 18 18 18 18 18
25 25 27 28 28 29 29 31 32 32 32 31 31 29 29 27 26 25 24 23 22 21 21 21 21 20 20 20 19 19 19 19 19 19 19 19 19 18 18 18 18 18 18 18 18 18 18 18 18
25 27 29 29 30 31 32 32 33 32 32 32 31 29 27 27 26 25 24 23 21 21 21 21 21 20 20 20 19 19 19 19 19 19 19 18 18 18 18 18 18 18 18 18 18 18 18 18 18
27 29 29 29 31 33 34 33 33 32 32 31 29 28 26 26 26 25 24 23 22 21 21 21 21 20 20 20 19 19 19 19 19 19 18 18 18 18 18 18 18 18 18 18 18 18 18 18 18
28 31 30 29 30 33 34 33 33 32 32 31 29 27 26 25 25 24 24 23 22 21 21 21 21 20 20 19 19 19 19 19 19 19 19 18 18 18 18 18 18 18 18 18 18 18 18 18 18
29 30 30 31 31 32 34 33 33 33 32 31 30 27 26 25 25 25 24 24 23 21 21 21 21 20 20 19 19 19 19 19 19 19 19 18 18 18 18 18 18 18 18 18 18 18 18 18 18
30 31 31 32 32 33 34 34 33 33 32 32 30 27 25 25 25 25 24 24 23 21 21 21 20 20 20 20 19 19 19 19 19 19 19 19 18 18 18 18 18 18 18 18 18 18 18 18 19
31 31 31 32 33 33 34 34 33 32 32 31 30 29 26 25 25 24 24 24 23 22 21 20 20 20 19 19 19 19 19 19 19 19 19 19 18 18 18 18 18 18 18 18 18 18 18 18 19
32 31 32 34 34 34 34 34 33 32 31 29 28 27 26 25 25 24 24 24 23 22 22 21 20 20 19 19 19 19 19 19 19 19 19 18 18 18 18 18 18 18 18 18 18 18 18 18 18
33 32 33 34 34 34 34 34 33 32 30 28 26 26 25 25 25 24 24 24 23 22 22 21 21 20 20 19 19 19 18 19 18 18 18 18 18 18 18 18 18 18 18 18 18 18 18 18 18
33 34 34 34 34 34 34 34 34 33 31 29 27 26 25 25 25 24 24 23 23 22 22 22 21 20 20 20 19 19 19 19 19 18 18 18 18 18 18 18 18 18 18 18 18 18 18 18 18
33 34 34 34 34 34 34 34 34 33 31 30 28 26 26 26 25 24 24 23 22 22 22 22 21 21 20 20 20 19 19 19 19 19 19 18 18 18 18 18 18 18 18 18 18 18 18 18 18
34 34 34 34 34 34 34 34 34 33 32 30 28 27 27 26 25 24 24 23 22 22 22 21 21 20 20 20 20 20 19 19 19 19 19 19 18 18 18 18 18 18 18 18 18 18 18 18 18
33 33 33 34 34 34 34 33 33 33 32 31 29 28 27 26 25 25 24 23 22 22 21 21 20 20 20 20 20 20 19 19 19 19 19 19 19 18 18 18 18 18 18 18 18 18 18 18 18
33 32 32 34 34 34 33 31 33 32 32 31 30 29 27 26 25 25 24 23 22 21 21 21 20 20 20 20 20 19 20 20 19 19 19 19 19 19 18 18 18 18 18 18 18 18 18 18 18
32 32 32 34 35 35 33 32 33 33 33 32 31 29 28 26 26 25 24 23 22 21 21 21 20 20 20 20 19 19 19 19 19 19 19 19 19 19 19 18 18 18 18 18 18 18 18 18 18
32 32 33 33 34 34 33 33 33 33 33 32 31 30 28 27 26 25 24 23 22 21 21 20 20 20 19 19 19 19 19 19 19 19 19 19 19 19 19 18 18 18 18 18 18 18 18 18 18
33 33 33 34 35 34 33 33 33 33 33 33 32 30 29 27 26 25 24 23 22 21 21 20 20 20 19 19 19 19 19 19 19 19 19 19 19 19 19 18 18 18 18 18 18 18 18 18 18
32 32 33 34 34 33 32 32 33 33 33 32 32 30 28 27 26 24 24 23 22 21 21 20 20 20 19 19 19 19 19 19 19 19 19 19 19 18 18 18 18 19 18 18 18 18 18 18 18
31 32 32 33 33 33 32 31 32 32 32 32 31 30 29 28 26 24 24 23 22 21 20 20 20 19 19 19 19 19 19 19 18 18 19 19 19 18 18 18 18 18 18 18 18 18 18 18 18
31 32 32 32 32 31 32 30 31 31 31 31 32 31 30 28 26 25 24 23 22 21 20 20 20 19 19 19 19 18 18 19 19 19 19 19 18 18 18 18 18 18 18 18 18 18 18 18 18
32 33 32 32 31 31 31 30 30 30 29 30 31 31 30 28 27 26 24 23 22 21 21 20 20 19 19 19 18 18 18 18 19 18 18 18 18 18 18 18 18 18 18 18 18 18 18 18 18
32 32 32 31 31 29 30 30 29 29 28 30 31 30 29 28 27 26 24 23 22 21 21 20 19 19 19 18 18 18 18 18 18 18 18 18 18 18 18 18 18 18 18 18 18 18 18 18 18
31 30 29 28 28 28 31 30 30 31 30 30 30 30 29 28 27 25 24 23 22 21 21 20 19 19 19 18 18 18 18 18 18 18 18 18 18 18 18 18 18 18 18 18 18 18 18 18 18
31 30 28 28 28 28 29 29 30 32 31 30 30 29 29 28 27 25 24 23 22 21 20 20 19 19 19 18 19 18 18 18 18 18 18 18 18 18 18 18 18 18 18 18 18 18 18 18 18
30 30 31 30 29 28 28 29 30 31 31 31 30 29 28 28 27 25 24 23 22 21 20 20 19 19 19 18 18 18 18 18 18 18 18 18 18 18 18 18 18 18 18 18 18 18 18 17 17
32 31 30 29 28 28 28 28 28 29 29 30 30 29 28 28 26 25 24 23 22 21 20 20 19 19 19 18 18 18 18 18 18 18 18 18 18 18 18 18 17 18 17 18 17 17 18 17 17
30 31 30 30 29 28 28 27 29 28 29 29 29 29 28 27 26 25 24 23 22 21 20 20 19 19 19 18 18 18 18 18 18 18 18 18 18 18 17 17 17 17 17 17 17 17 17 17 17
31 31 30 29 28 29 28 27 29 28 29 29 29 28 27 26 25 24 23 23 22 21 21 20 20 19 19 18 18 18 18 18 18 18 18 18 17 17 17 17 17 17 17 17 17 17 17 17 17
Wind_Speed
9 12 10 6 3 1 9 14 15 15 14 13 13 13 17 15 11 11 16 24 26 22 20 19 19 18 17 17 16 16 15 15 15 14 14 14 14 14 14 15 15 15 16 16 16 16 16 16 15
10 12 8 4 1 4 9 13 14 13 12 12 13 15 17 17 15 16 19 23 25 22 20 19 19 18 17 17 16 15 15 14 14 14 14 13 14 14 14 14 15 15 15 15 16 16 15 15 14
11 14 6 3 1 7 10 11 12 12 10 11 14 16 14 13 15 15 20 24 23 20 20 20 20 19 17 17 16 15 14 14 14 13 13 13 13 13 14 14 14 15 15 15 15 15 14 13 12
8 7 5 3 4 8 10 11 11 11 10 11 13 12 12 11 14 19 21 23 23 21 21 20 20 19 17 16 15 15 14 14 13 13 13 13 13 14 14 14 14 14 15 15 14 14 14 12 10
8 6 5 2 5 8 10 11 11 10 11 14 17 15 13 12 18 20 20 21 21 21 20 20 19 18 17 16 15 14 14 13 13 13 13 13 13 13 14 14 14 14 14 14 14 13 12 11 8
6 7 4 1 4 7 9 10 10 9 10 12 17 16 11 12 17 18 19 19 20 21 20 19 19 18 17 16 15 14 14 13 13 13 13 12 12 13 13 13 14 14 13 13 13 12 11 9 6
9 9 8 2 4 5 8 8 9 8 10 9 15 14 10 15 16 17 17 17 19 21 19 17 17 17 16 15 15 14 14 13 12 12 12 12 12 13 13 13 13 13 13 12 12 11 10 8 5
9 8 8 0 4 6 7 7 8 9 8 7 11 10 12 16 17 17 16 16 18 19 18 16 17 16 15 15 15 14 14 13 13 12 13 13 13 13 13 13 12 12 12 11 11 10 9 7 5
10 9 6 2 3 6 7 6 8 9 9 9 12 15 19 21 19 17 15 15 14 16 16 16 16 15 16 16 15 15 14 13 13 12 12 13 12 13 12 13 13 12 11 10 10 9 9 7 5
7 7 4 4 4 5 5 4 4 6 9 10 11 17 21 20 19 17 16 15 15 14 15 14 15 14 14 14 15 13 12 13 12 12 13 11 10 12 12 15 13 11 10 10 9 9 9 8 7
9 8 6 4 4 3 0 2 5 6 6 10 12 16 19 20 18 16 15 14 14 13 13 14 13 11 11 10 12 10 10 11 10 12 12 10 10 11 13 11 11 10 11 9 9 9 9 8 6
10 9 7 4 4 4 3 1 2 5 8 15 18 18 19 19 18 17 15 14 13 12 12 13 13 10 7 9 8 7 7 8 7 11 11 9 5 6 9 8 10 10 9 8 8 7 7 5 4
11 11 9 7 6 6 5 4 1 5 12 16 19 18 19 18 17 15 14 14 13 10 10 11 11 9 6 5 4 6 6 7 8 10 10 9 5 4 6 5 6 8 8 8 5 4 4 3 3
10 10 11 10 9 8 8 6 4 5 11 15 18 18 18 17 17 16 15 13 13 12 10 10 11 10 7 5 2 2 5 6 7 8 10 9 7 5 5 4 4 5 7 7 5 4 4 3 2
11 12 13 13 11 9 8 8 6 5 10 13 15 16 16 15 15 16 15 14 14 12 10 10 11 10 9 8 6 4 5 7 6 7 10 9 7 8 6 4 4 4 6 6 4 4 4 3 4
11 13 15 14 13 10 9 9 8 9 10 11 13 14 14 13 15 15 15 13 14 13 11 11 12 12 10 8 7 5 5 5 5 8 10 9 8 9 6 4 5 6 6 4 3 3 3 3 3
14 15 16 13 12 9 9 8 7 9 9 10 11 13 15 15 15 14 15 14 13 12 12 11 9 11 11 9 7 5 3 3 5 7 9 10 10 9 6 3 3 6 4 3 5 4 3 2 2
12 13 13 10 10 9 10 8 8 9 8 9 11 13 14 14 14 14 14 14 12 12 11 11 10 10 10 8 6 5 4 4 4 5 7 11 10 10 8 4 5 5 4 4 2 3 2 1 2
16 14 10 7 5 7 9 9 8 6 7 8 10 11 12 14 13 13 13 14 13 13 12 12 11 10 9 8 8 8 7 5 5 5 8 11 11 11 8 5 6 4 4 5 5 3 3 3 3
15 15 13 7 5 5 8 9 8 7 7 7 8 10 11 13 13 12 12 13 13 12 12 12 11 11 11 8 7 6 6 6 6 5 6 11 11 10 10 5 6 6 4 4 4 4 2 3 3
15 15 13 11 6 7 9 12 11 8 8 8 10 11 12 14 14 14 14 13 13 13 13 12 11 10 11 9 7 5 4 4 5 6 6 7 10 10 8 7 6 6 6 6 5 5 5 4 3
14 14 13 12 10 9 10 11 9 8 11 11 11 11 12 13 13 14 14 13 12 12 12 10 10 10 10 9 9 9 8 8 7 6 6 7 8 9 9 8 7 6 5 6 7 7 5 5 4
13 11 11 12 12 12 12 11 7 7 9 11 10 9 9 10 12 12 12 11 10 10 10 10 10 10 9 9 9 9 8 7 5 6 7 7 7 8 9 8 7 7 6 6 7 5 5 5 5
12 11 10 11 11 14 15 13 9 7 11 10 9 8 8 9 10 10 10 10 9 9 9 10 9 9 9 9 9 10 9 8 8 8 8 7 7 7 8 8 7 7 7 6 6 6 7 5 5
14 11 8 9 10 13 13 12 6 6 6 7 7 8 8 9 10 10 10 10 9 9 8 9 9 8 9 9 9 10 9 9 9 8 8 8 7 7 9 9 7 7 7 6 6 7 6 7 6
16 16 12 9 10 9 10 9 5 7 8 7 8 8 7 9 9 10 9 9 9 9 8 8 9 8 8 9 8 7 8 7 7 7 7 8 7 7 8 9 8 8 7 8 7 6 7 6 6
17 17 17 15 14 9 7 5 4 5 8 8 8 9 7 8 9 11 10 9 8 9 9 8 8 8 7 7 7 7 7 7 7 6 7 6 6 7 8 9 9 8 7 7 6 5 6 6 6
18 16 12 13 11 11 8 8 7 9 8 8 8 9 8 9 10 10 10 9 7 7 7 7 7 7 6 6 5 6 5 5 5 5 6 6 6 6 6 7 8 8 7 7 6 5 5 6 5
17 17 13 10 11 10 8 3 3 9 9 9 7 7 8 8 8 8 9 9 8 7 8 7 7 6 5 5 4 3 4 4 5 4 5 4 4 4 5 6 6 6 6 6 6 5 5 6 5
18 17 15 11 10 11 8 2 3 5 8 10 9 7 8 8 8 9 8 9 7 7 7 6 6 6 5 5 4 3 3 3 4 4 4 4 4 4 4 4 4 5 6 6 6 6 6 6 5
Wind_Direction
240 245 238 255 263 322 67 73 73 69 66 60 58 66 69 63 79 97 117 119 119 123 127 127 125 127 126 125 123 121 119 115 113 110 108 106 104 103 103 102 101 101 100 99 97 97 97 97 97
263 258 245 251 266 74 74 76 75 75 78 77 69 71 76 75 92 110 117 119 122 127 132 129 128 127 127 125 124 123 122 120 117 115 111 110 107 106 105 105 105 105 104 102 101 100 100 99 100
266 266 266 224 126 95 92 89 87 86 82 85 78 67 67 87 102 117 123 124 124 126 125 128 130 129 128 127 127 126 125 123 121 118 115 113 111 108 107 107 107 107 106 105 103 103 103 103 105
264 257 241 248 98 98 97 97 98 93 85 80 84 78 70 85 113 123 128 126 124 126 127 131 131 130 130 130 129 129 127 125 123 121 117 116 114 112 112 110 109 109 109 107 106 105 105 106 108
258 267 260 302 81 96 96 95 92 87 83 85 88 89 84 94 117 127 131 128 132 129 129 134 134 133 133 133 132 131 130 128 125 123 121 119 117 117 116 114 112 111 112 110 109 109 109 111 114
269 266 275 67 75 88 94 93 91 96 90 96 104 102 98 116 125 135 136 136 134 130 131 134 137 137 138 138 136 135 134 132 130 129 127 125 122 121 119 117 116 115 115 115 114 114 114 116 118
264 284 277 170 124 105 99 104 104 98 90 95 105 105 125 134 138 141 138 136 134 130 132 141 143 142 143 144 143 141 139 138 136 135 133 131 129 127 125 122 121 121 120 120 120 120 120 123 130
271 291 289 92 131 111 108 107 107 103 98 97 107 120 142 142 148 143 138 136 134 134 139 146 149 149 151 149 147 146 145 144 144 144 143 141 139 137 136 132 129 128 128 128 129 129 131 136 152
267 275 289 5 114 114 107 105 110 108 95 69 68 117 141 146 150 146 145 142 139 138 143 153 151 156 159 155 151 152 151 152 153 154 156 157 158 152 154 136 137 138 139 139 140 144 148 156 179
249 267 294 21 26 78 100 124 112 113 100 90 84 115 138 149 153 154 156 152 144 144 153 155 153 159 164 155 151 161 163 162 174 165 170 185 172 156 144 140 145 149 151 152 157 163 169 184 189
255 266 303 347 344 9 322 144 139 127 128 137 142 143 150 154 158 161 161 156 150 155 158 152 150 158 162 144 159 169 164 165 183 171 177 184 161 147 138 147 152 162 168 174 166 180 199 200 185
256 274 285 285 287 286 293 304 126 119 129 144 155 156 160 162 166 167 164 160 157 166 162 153 150 157 155 149 162 159 157 167 170 170 182 170 167 154 149 156 165 173 181 179 178 195 206 181 158
250 262 265 270 274 276 279 265 221 124 119 132 148 160 168 168 168 169 164 161 160 170 166 150 146 146 148 134 157 162 155 166 165 163 181 174 165 159 147 154 167 180 172 175 187 186 152 147 160
269 267 268 262 256 255 256 258 232 157 132 140 154 164 170 170 169 169 166 165 165 173 168 151 147 143 144 143 172 156 159 158 156 165 172 184 165 150 142 155 175 182 170 171 172 169 152 179 171
268 271 266 255 245 242 249 258 241 189 150 153 160 166 169 169 172 173 171 169 169 173 167 155 154 151 157 165 187 183 181 167 167 163 164 180 171 152 157 159 180 184 161 157 166 170 174 187 182
254 254 253 244 231 224 226 246 214 197 175 165 165 166 167 169 178 175 171 169 169 172 167 165 174 165 168 175 187 194 194 177 173 162 164 176 173 162 174 172 183 171 159 166 161 194 198 195 180
241 241 247 236 211 215 224 239 201 186 189 174 171 168 170 172 176 173 171 171 170 169 165 168 175 167 173 179 185 205 191 177 174 170 168 174 180 176 189 192 166 171 166 179 191 186 193 182 185
245 237 241 233 191 207 227 237 213 193 203 188 178 174 168 172 175 172 172 171 170 169 167 170 177 173 171 174 180 206 201 184 188 179 170 170 183 186 196 188 177 191 174 179 178 157 167 172 202
272 281 274 246 184 212 235 241 238 200 211 204 183 174 171 172 171 168 172 174 174 172 172 175 182 177 174 180 188 197 197 193 199 201 178 177 189 188 200 198 171 194 187 181 174 172 185 212 205
260 271 274 264 204 229 248 254 250 230 215 213 184 169 172 167 163 167 174 176 177 173 175 178 184 183 185 188 189 195 190 190 198 209 187 184 192 189 198 200 183 187 188 187 184 167 185 226 206
247 254 262 269 242 229 253 253 243 238 227 212 192 179 177 169 168 172 180 183 180 178 179 184 184 183 188 185 185 196 184 194 201 200 193 194 193 196 205 185 199 188 192 188 191 183 195 221 223
241 247 259 268 261 252 245 256 237 216 216 214 201 187 178 170 171 176 178 182 184 179 179 178 179 181 185 186 192 192 195 200 203 193 193 194 198 202 201 193 195 200 205 182 193 194 201 206 229
241 246 248 259 263 263 256 253 243 195 222 217 202 181 168 169 171 170 171 174 179 180 178 177 177 182 185 193 199 199 205 202 199 194 194 197 203 209 204 198 194 199 208 201 205 184 194 201 220
237 245 245 252 259 253 253 258 247 206 204 211 182 164 162 167 159 152 159 164 174 178 177 174 177 184 187 196 201 203 205 201 208 202 194 198 201 210 213 203 197 201 209 204 198 192 201 215 231
223 226 223 226 235 247 246 246 238 183 172 183 165 152 164 156 147 148 156 162 167 172 169 173 175 184 191 197 202 203 208 209 212 209 201 200 205 207 206 206 197 204 206 201 200 198 206 209 220
214 221 226 232 239 246 237 236 205 160 140 142 140 138 155 148 146 146 150 154 161 164 164 169 173 184 191 198 201 206 209 211 215 216 214 211 212 212 200 197 194 200 203 207 197 200 203 208 213
216 223 236 249 264 262 234 215 164 142 140 141 141 143 158 148 143 144 148 151 157 162 164 167 169 179 190 196 197 202 206 210 212 212 216 223 217 216 204 196 196 199 201 208 194 202 205 199 203
232 224 233 247 264 269 244 206 198 171 165 155 151 148 154 142 142 144 144 145 151 157 153 155 156 170 180 184 190 198 197 205 206 211 215 215 222 223 201 200 197 195 197 202 199 199 205 198 199
220 228 232 242 252 263 262 246 169 157 160 157 150 148 145 134 128 129 135 138 147 151 152 152 151 156 166 176 183 188 181 192 201 202 207 207 215 210 204 200 194 192 188 194 194 198 198 196 198
217 225 224 232 244 257 262 228 112 146 159 149 143 132 118 115 117 118 127 130 138 143 144 147 153 160 166 169 167 179 178 178 190 201 201 194 197 192 193 194 192 192 191 192 188 194 193 190 193
Height
1477 1476 1477 1479 1478 1479 1474 1464 1460 1462 1463 1465 1466 1468 1473 1478 1485 1497 1498 1500 1502 1505 1510 1513 1516 1519 1521 1524 1526 1528 1529 1531 1533 1534 1535 1537 1538 1539 1541 1542 1543 1544 1545 1546 1547 1548 1549 1550 1551
1477 1478 1481 1479 1481 1487 1479 1464 1464 1465 1466 1467 1469 1472 1476 1483 1488 1494 1499 1502 1504 1507 1511 1514 1517 1520 1523 1525 1527 1529 1531 1533 1535 1536 1538 1539 1540 1542 1543 1544 1545 1546 1547 1549 1550 1551 1552 1553 1554
1477 1479 1480 1474 1477 1481 1477 1464 1464 1465 1467 1468 1472 1477 1482 1488 1492 1497 1501 1504 1506 1510 1513 1516 1519 1522 1524 1527 1529 1531 1533 1535 1537 1538 1540 1541 1542 1544 1545 1546 1547 1548 1550 1551 1552 1553 1554 1555 1556
1480 1479 1477 1472 1473 1466 1463 1462 1463 1465 1467 1469 1473 1481 1488 1492 1495 1499 1503 1506 1508 1511 1514 1517 1520 1523 1526 1528 1531 1533 1535 1537 1538 1540 1541 1543 1544 1546 1547 1548 1549 1550 1552 1553 1554 1555 1556 1557 1559
1481 1477 1474 1474 1467 1459 1457 1460 1463 1467 1468 1472 1477 1485 1492 1495 1497 1501 1505 1508 1510 1513 1515 1519 1521 1524 1527 1529 1532 1534 1536 1538 1540 1542 1543 1545 1546 1547 1549 1550 1551 1552 1554 1555 1556 1557 1558 1560 1561
1480 1472 1477 1480 1471 1459 1458 1461 1464 1467 1469 1473 1478 1486 1495 1498 1500 1503 1507 1510 1512 1514 1516 1520 1523 1526 1528 1531 1533 1535 1538 1540 1541 1543 1545 1546 1548 1549 1550 1552 1553 1554 1556 1557 1558 1559 1560 1562 1563
1479 1473 1473 1470 1470 1463 1459 1461 1464 1467 1470 1474 1479 1487 1495 1499 1501 1504 1508 1511 1514 1516 1518 1521 1524 1527 1529 1532 1534 1536 1539 1541 1543 1544 1546 1548 1549 1551 1552 1553 1555 1556 1557 1559 1560 1561 1562 1563 1565
1476 1472 1469 1465 1468 1464 1459 1460 1464 1468 1472 1475 1478 1487 1495 1499 1502 1505 1509 1513 1515 1517 1519 1522 1525 1527 1530 1532 1535 1537 1540 1542 1544 1545 1547 1549 1550 1552 1554 1555 1556 1558 1559 1560 1561 1562 1564 1565 1567
1474 1475 1473 1465 1463 1460 1458 1460 1464 1469 1473 1477 1479 1484 1491 1497 1502 1505 1509 1513 1516 1519 1521 1523 1526 1528 1531 1533 1535 1538 1540 1542 1544 1546 1548 1550 1551 1553 1555 1556 1558 1559 1560 1562 1563 1564 1565 1567 1569
1471 1473 1466 1458 1457 1457 1459 1461 1465 1469 1475 1481 1485 1489 1493 1497 1501 1505 1508 1512 1516 1519 1522 1525 1527 1529 1533 1535 1536 1538 1541 1543 1545 1547 1549 1551 1553 1554 1556 1557 1559 1560 1562 1563 1564 1565 1566 1568 1570
1466 1467 1461 1460 1459 1460 1460 1461 1464 1468 1476 1482 1486 1490 1493 1497 1501 1504 1508 1511 1515 1518 1522 1525 1527 1530 1533 1535 1537 1539 1542 1544 1546 1548 1550 1552 1554 1556 1557 1558 1559 1561 1562 1564 1565 1566 1568 1569 1571
1465 1462 1461 1461 1461 1461 1461 1461 1463 1466 1473 1478 1483 1488 1493 1497 1500 1503 1507 1511 1514 1518 1521 1524 1526 1529 1533 1535 1538 1540 1542 1544 1546 1548 1550 1552 1554 1556 1557 1558 1560 1561 1562 1564 1566 1567 1569 1571 1573
1463 1462 1461 1461 1462 1462 1462 1462 1464 1467 1471 1477 1482 1487 1492 1495 1499 1503 1506 1510 1513 1517 1520 1523 1525 1528 1532 1535 1537 1540 1542 1544 1546 1548 1550 1553 1554 1556 1557 1559 1560 1562 1563 1565 1566 1567 1569 1571 1573
1462 1461 1460 1460 1460 1461 1462 1462 1464 1467 1471 1476 1481 1486 1490 1493 1497 1501 1505 1508 1512 1515 1519 1522 1524 1527 1530 1533 1536 1539 1541 1544 1546 1547 1549 1552 1554 1555 1557 1559 1560 1562 1563 1565 1567 1568 1569 1571 1572
1464 1463 1461 1458 1458 1459 1461 1465 1464 1466 1469 1474 1479 1484 1488 1492 1496 1499 1503 1506 1510 1514 1517 1520 1522 1525 1528 1531 1534 1538 1540 1542 1544 1546 1548 1550 1553 1554 1556 1558 1559 1561 1563 1565 1566 1568 1569 1571 1572
1463 1465 1467 1456 1454 1456 1463 1472 1462 1465 1467 1472 1477 1482 1486 1490 1494 1498 1501 1505 1508 1511 1515 1517 1521 1523 1525 1529 1532 1535 1539 1541 1543 1545 1546 1548 1551 1553 1555 1557 1559 1560 1562 1564 1565 1567 1568 1570 1571
1465 1468 1463 1453 1449 1452 1459 1465 1459 1462 1465 1469 1474 1478 1483 1488 1492 1496 1500 1503 1506 1509 1512 1515 1518 1521 1523 1527 1530 1533 1536 1539 1541 1543 1544 1546 1549 1551 1553 1555 1557 1559 1561 1562 1564 1566 1567 1569 1570
1464 1460 1456 1453 1447 1451 1457 1459 1457 1460 1462 1465 1470 1475 1480 1485 1489 1494 1498 1501 1504 1507 1510 1512 1515 1518 1521 1524 1527 1530 1533 1536 1538 1540 1542 1544 1546 1549 1551 1553 1555 1558 1559 1561 1562 1564 1566 1567 1568
1455 1455 1454 1448 1443 1451 1457 1458 1456 1457 1460 1462 1467 1472 1477 1483 1487 1491 1496 1499 1502 1504 1507 1509 1512 1515 1518 1521 1523 1526 1529 1532 1535 1538 1540 1542 1544 1546 1548 1551 1553 1555 1557 1559 1561 1562 1564 1565 1567
1457 1460 1456 1448 1444 1452 1457 1458 1454 1455 1459 1462 1465 1470 1475 1481 1485 1489 1493 1497 1499 1502 1504 1507 1509 1512 1514 1517 1520 1523 1527 1529 1531 1534 1537 1539 1541 1544 1546 1548 1550 1552 1554 1556 1558 1560 1561 1563 1565
1459 1460 1457 1454 1448 1450 1458 1463 1457 1454 1456 1460 1463 1467 1472 1477 1482 1486 1490 1494 1497 1499 1501 1504 1506 1509 1512 1514 1517 1521 1524 1526 1529 1531 1533 1535 1538 1541 1543 1545 1547 1550 1552 1553 1555 1557 1559 1561 1563
1463 1453 1452 1454 1459 1462 1460 1475 1460 1455 1457 1458 1460 1464 1469 1474 1478 1483 1487 1491 1494 1497 1499 1501 1503 1506 1508 1511 1514 1516 1519 1521 1525 1527 1529 1532 1534 1537 1540 1542 1544 1546 1549 1551 1553 1554 1556 1559 1560
1454 1449 1452 1454 1459 1464 1460 1468 1464 1454 1463 1457 1457 1461 1466 1471 1476 1480 1484 1488 1492 1495 1497 1499 1501 1503 1505 1508 1510 1513 1516 1518 1521 1524 1527 1529 1531 1534 1536 1538 1541 1543 1545 1547 1550 1552 1553 1555 1557
1449 1451 1454 1457 1462 1477 1465 1468 1468 1457 1459 1456 1455 1459 1464 1470 1474 1479 1483 1487 1490 1493 1495 1497 1498 1500 1502 1504 1506 1509 1512 1515 1517 1519 1522 1525 1527 1530 1532 1534 1537 1539 1542 1544 1546 1548 1550 1552 1554
1450 1462 1478 1483 1483 1478 1456 1461 1460 1448 1448 1450 1454 1458 1464 1468 1473 1478 1482 1485 1488 1491 1493 1495 1496 1497 1499 1501 1503 1506 1508 1511 1513 1516 1518 1520 1523 1526 1528 1530 1532 1535 1537 1540 1543 1545 1547 1549 1551
1451 1457 1476 1487 1483 1472 1459 1462 1451 1442 1446 1450 1453 1458 1463 1467 1472 1476 1480 1484 1487 1489 1491 1492 1493 1495 1497 1498 1500 1503 1505 1507 1509 1512 1514 1517 1519 1522 1524 1525 1528 1530 1533 1536 1539 1541 1543 1545 1547
1449 1453 1449 1460 1465 1472 1466 1457 1449 1444 1446 1449 1454 1458 1463 1467 1471 1476 1480 1483 1486 1488 1489 1491 1492 1493 1494 1496 1499 1500 1502 1504 1506 1508 1510 1513 1515 1517 1520 1522 1524 1526 1529 1532 1535 1537 1539 1541 1543
1438 1443 1451 1459 1474 1478 1468 1464 1461 1453 1450 1451 1453 1457 1462 1466 1471 1475 1479 1482 1485 1487 1489 1490 1491 1492 1493 1495 1497 1499 1500 1502 1503 1505 1507 1509 1511 1513 1515 1517 1520 1522 1525 1528 1531 1533 1535 1537 1539
1441 1443 1446 1450 1456 1471 1477 1471 1445 1448 1448 1451 1454 1458 1462 1466 1471 1475 1479 1482 1484 1487 1488 1489 1490 1492 1493 1495 1496 1497 1498 1500 1501 1503 1504 1506 1507 1509 1511 1513 1516 1518 1520 1523 1526 1529 1531 1533 1535
1432 1437 1443 1459 1462 1456 1464 1470 1444 1447 1447 1450 1455 1459 1463 1468 1472 1476 1479 1482 1485 1486 1488 1489 1491 1492 1493 1494 1495 1497 1498 1499 1500 1501 1502 1503 1505 1506 1508 1510 1512 1515 1517 1520 1522 1525 1527 1530 1532